Theta_e
297 297 297 297 298 298 298 298 297 297 297 296 296 296 297 300 302 303 303 304 302 303 301 300 300 301 299 299 296 296 294 295 293 292 284 283 284 284 285 286 286 285 288
295 295 296 296 296 296 296 296 295 295 295 295 294 294 295 299 301 301 301 302 301 300 300 298 298 298 297 298 296 294 293 294 293 291 281 281 281 283 283 284 284 285 284
293 293 293 293 294 294 294 294 294 294 294 293 292 292 294 296 297 298 300 299 300 300 299 296 297 296 295 296 294 293 292 291 290 286 280 282 281 282 281 283 282 282 282
290 290 290 290 290 291 291 292 292 292 291 291 291 290 289 291 291 292 292 295 296 296 296 295 295 295 294 294 291 291 289 288 287 286 281 280 280 281 281 280 279 280 280
287 287 287 287 287 287 287 287 286 287 287 287 287 287 287 287 289 290 290 291 291 292 291 292 293 293 292 294 291 289 288 287 285 285 281 279 278 278 278 279 279 278 279
287 286 285 285 285 285 285 285 285 286 286 286 286 286 286 286 290 292 291 288 288 288 289 290 290 287 289 292 293 294 290 287 285 285 283 280 279 278 279 279 278 277 275
284 284 283 283 283 283 284 283 284 284 284 284 284 283 285 285 290 292 291 287 286 287 288 288 287 287 286 287 291 292 292 292 291 286 284 282 279 279 280 278 279 278 278
283 283 282 282 282 283 282 282 281 282 282 282 283 282 282 284 289 290 290 286 285 286 287 287 287 286 285 285 286 286 287 287 289 287 286 283 282 282 281 281 280 280 279
283 282 281 280 279 280 280 281 281 279 282 279 279 279 279 282 287 289 289 286 286 286 286 286 286 285 286 288 285 285 284 284 288 288 287 286 287 286 283 282 279 278 276
282 282 281 280 277 277 279 279 277 277 281 282 282 280 280 283 287 288 288 286 285 285 284 284 284 285 286 288 286 284 282 282 283 284 284 286 286 285 286 283 281 279 275
279 279 279 278 276 276 275 279 276 277 279 278 279 279 279 280 281 287 288 286 285 285 284 283 283 286 287 288 289 284 283 284 285 284 284 284 283 284 283 282 282 280 276
277 276 275 275 275 277 271 277 273 273 276 279 281 283 279 278 282 285 287 287 288 285 284 283 282 285 287 288 287 286 287 286 283 282 281 281 281 281 279 279 279 278 277
279 278 273 274 275 276 271 273 276 278 279 280 280 281 281 279 280 284 285 286 287 286 283 283 284 285 286 287 288 286 285 282 281 280 279 279 279 277 275 273 273 273 272
274 277 279 279 279 278 277 276 275 277 277 279 279 280 280 279 277 279 281 282 283 285 283 283 283 284 285 285 284 285 283 281 280 280 279 277 276 276 274 272 270 270 269
270 271 273 277 280 279 278 279 278 279 277 278 279 279 278 278 277 282 283 282 283 283 281 279 276 278 281 282 282 282 281 280 280 278 276 276 275 275 272 271 270 268 268
268 271 272 273 274 277 279 280 283 283 284 285 285 285 284 284 285 285 285 285 286 286 278 276 277 278 279 280 280 278 279 279 278 277 276 276 274 274 271 270 268 268 267
263 266 268 270 271 273 278 278 277 277 281 284 285 284 285 285 285 285 285 285 286 284 278 278 279 279 278 279 279 278 277 278 278 277 276 275 274 274 271 269 268 267 267
259 262 264 266 269 273 277 278 273 272 272 270 278 282 282 283 285 286 285 285 283 282 279 278 278 278 278 277 277 276 276 276 276 276 275 275 274 273 271 269 268 267 267
260 262 264 266 268 271 274 275 272 271 268 269 270 276 276 280 283 282 283 282 280 278 279 279 278 277 277 277 277 277 276 275 275 274 274 273 273 272 270 270 269 268 267
260 263 265 266 268 271 275 274 272 270 270 271 270 271 274 274 274 273 272 272 273 275 276 278 278 278 277 277 276 275 274 272 272 272 271 271 270 270 269 267 267 265 265
261 263 265 266 269 271 273 273 273 271 271 266 267 272 276 267 268 267 266 265 265 265 267 269 269 269 270 271 270 270 270 270 270 269 268 267 267 266 267 267 266 265 263
263 263 265 265 267 269 270 272 272 272 269 266 266 266 270 263 263 263 263 262 262 262 263 264 263 262 262 264 264 264 266 266 265 264 264 264 263 263 263 263 263 262 262
262 263 264 264 265 267 268 267 267 267 266 265 265 263 262 260 260 260 260 260 259 258 259 259 260 260 259 259 260 261 262 260 259 259 259 260 260 261 261 261 261 260 259
261 261 262 262 263 264 264 264 264 264 263 263 262 261 260 259 258 259 259 259 258 258 258 258 258 258 258 257 256 256 257 257 258 258 259 259 259 260 259 259 259 259 259
260 260 260 261 261 262 262 262 262 262 261 261 261 260 260 260 260 259 258 258 257 257 257 256 255 254 252 252 253 252 255 257 253 254 253 255 256 255 254 254 254 254 255
259 259 258 259 260 260 260 260 260 260 260 260 260 259 259 259 259 259 258 258 257 257 256 255 252 251 250 250 250 255 257 260 255 254 248 248 248 246 246 246 246 245 247
Wind_Speed
7 5 6 4 4 3 1 2 3 3 5 6 6 6 7 7 8 9 10 9 9 10 9 11 13 12 10 9 9 9 10 10 12 4 3 3 9 10 8 9 10 9 9
5 6 5 5 6 5 4 5 3 5 4 6 6 6 6 8 8 10 10 9 11 11 10 10 11 8 11 11 9 12 11 11 9 14 3 3 4 11 9 11 9 8 9
6 7 7 7 7 6 6 6 6 6 6 5 5 7 7 8 8 9 10 10 11 11 10 11 12 11 12 9 9 10 9 8 9 4 4 2 2 7 8 7 8 9 6
6 6 6 6 6 6 6 6 7 6 7 6 6 7 6 7 7 7 8 9 9 9 9 9 11 12 13 11 9 11 8 8 8 7 4 3 3 6 8 9 8 6 6
7 7 7 6 5 6 6 6 6 6 6 7 7 6 6 6 6 8 8 9 9 9 8 9 10 11 15 15 9 9 10 9 6 8 4 4 5 6 12 8 8 8 6
8 8 7 8 7 7 7 7 6 6 6 5 6 7 7 5 12 15 11 7 7 9 10 9 10 9 11 17 19 19 16 13 13 9 9 9 10 9 8 10 9 10 7
6 5 5 6 7 6 6 6 7 7 6 6 7 6 7 7 13 13 13 7 7 9 9 9 8 7 8 9 15 19 19 23 18 13 12 10 9 13 13 12 12 12 8
6 6 6 7 8 8 8 7 6 5 7 7 7 6 6 6 14 14 13 7 8 9 10 10 9 8 9 9 9 9 10 11 13 9 10 9 10 15 16 13 13 10 6
6 6 6 5 7 7 9 10 9 5 8 5 5 7 7 7 14 14 12 6 8 10 9 9 9 9 12 16 9 9 8 6 8 13 13 17 19 24 16 10 10 11 5
6 8 7 5 5 6 6 8 4 5 8 8 9 6 7 8 13 13 10 5 8 7 7 8 13 11 15 17 11 10 9 9 10 8 8 12 15 19 25 13 12 12 5
6 7 7 6 6 5 5 6 4 8 8 7 8 6 7 6 7 15 15 7 7 8 6 6 6 16 18 18 18 10 11 10 13 8 7 7 8 10 8 7 10 10 7
5 7 7 6 6 6 5 6 5 5 7 8 9 10 4 5 9 12 16 17 15 9 8 5 5 13 17 18 15 15 15 15 8 7 6 6 7 7 6 6 7 6 5
10 9 5 6 6 5 5 6 5 6 6 7 7 8 8 3 5 14 15 17 18 11 5 7 10 13 16 13 14 16 15 7 8 8 8 5 5 7 10 8 9 10 9
8 9 9 10 10 8 4 4 4 5 5 6 6 7 7 6 5 4 6 6 10 8 7 4 6 8 10 6 7 10 4 5 7 7 6 6 6 5 7 5 4 3 3
6 7 7 7 9 10 8 6 5 6 6 6 5 5 7 8 6 12 12 6 5 5 3 1 1 1 2 3 5 4 5 5 5 4 6 6 6 5 4 3 4 3 2
9 6 6 7 7 7 8 8 8 14 14 14 14 11 6 11 17 17 14 13 13 9 2 1 2 1 1 2 4 5 4 6 4 5 6 6 5 5 5 3 2 3 4
8 9 7 8 7 8 8 6 9 6 12 11 7 11 13 12 13 14 12 10 6 6 1 1 1 1 1 2 5 5 3 4 6 5 5 6 6 6 8 6 5 4 3
7 10 7 7 8 8 8 6 4 4 4 4 4 6 11 14 14 12 9 5 0 3 1 1 0 0 2 3 4 3 4 4 5 5 5 5 5 6 5 6 6 6 5
7 6 7 7 8 9 9 7 5 3 3 2 3 4 7 12 11 12 12 3 2 2 2 2 2 2 1 2 3 3 3 4 3 4 4 5 5 5 4 5 5 6 5
7 10 10 8 8 8 7 6 3 3 2 1 2 2 5 4 4 5 6 5 6 6 5 2 2 2 1 2 2 3 3 3 3 3 3 3 3 4 4 5 5 6 5
7 8 9 7 7 6 6 4 3 2 3 3 2 4 8 3 3 4 5 5 5 5 5 5 5 5 4 4 3 3 3 3 3 3 3 3 4 3 4 4 4 5 5
7 7 6 5 5 4 4 3 2 3 4 4 3 4 10 3 4 4 4 4 4 4 4 4 4 5 5 5 4 3 3 3 3 2 3 3 3 3 3 3 3 3 4
6 6 5 4 4 5 4 5 4 4 4 4 3 3 4 3 3 4 4 4 4 4 4 5 5 5 5 5 5 4 4 3 1 2 2 2 3 3 3 3 3 3 4
5 5 5 4 4 4 4 4 4 6 5 4 3 4 3 3 3 4 3 3 3 3 4 4 4 5 4 4 3 3 3 2 3 2 3 3 3 3 2 2 3 4 3
5 5 5 5 5 4 4 4 4 4 4 3 3 3 3 3 3 3 3 2 2 3 4 4 3 4 4 4 4 4 4 6 4 3 3 3 3 4 3 2 2 2 2
5 5 4 4 4 4 4 4 4 3 3 3 2 3 2 2 2 2 3 3 2 2 2 2 3 3 4 3 3 3 2 2 2 4 3 3 4 3 3 3 4 2 3
Wind_Direction
36 37 35 35 46 36 10 272 247 246 243 240 238 237 231 232 231 228 233 240 219 227 221 225 228 226 226 220 208 213 219 222 245 225 181 177 180 186 190 191 181 169 202
23 37 23 14 20 14 355 327 302 273 265 254 248 247 241 239 233 231 237 227 226 226 227 225 229 221 226 225 211 216 215 215 226 248 139 156 182 191 183 181 173 163 181
24 33 22 18 17 0 345 331 320 308 287 270 247 244 244 239 236 237 239 238 238 236 230 219 228 223 229 229 216 216 215 213 214 195 167 144 137 177 170 170 167 159 173
15 32 30 11 360 352 337 335 327 322 307 296 266 257 241 237 235 234 232 240 241 240 236 229 227 228 230 226 214 215 208 205 206 200 170 148 145 167 174 170 166 158 168
14 23 9 350 355 355 352 336 324 317 294 285 289 278 264 241 243 236 231 236 235 241 239 242 240 234 226 224 211 209 196 201 194 202 177 161 164 164 180 166 168 154 164
3 2 357 356 349 349 339 330 324 319 312 302 294 278 277 255 247 246 240 234 238 247 255 250 243 236 237 232 222 218 198 197 201 198 198 201 187 169 164 162 159 158 173
343 340 348 349 339 336 324 326 330 326 319 310 295 281 276 270 273 265 252 244 244 247 245 245 246 234 229 237 240 232 220 217 210 201 203 195 171 169 159 164 170 175 173
331 342 353 352 342 337 335 329 319 312 312 311 303 292 288 287 286 280 269 249 243 248 248 247 243 239 224 221 226 228 222 216 222 211 210 183 174 167 172 175 165 154 111
344 342 339 341 328 331 331 329 327 320 327 313 295 302 292 281 287 289 282 259 254 252 246 237 235 240 231 233 222 219 210 204 194 174 177 178 174 168 160 145 153 157 156
343 333 327 323 317 314 309 312 294 308 304 308 304 277 268 280 284 285 278 263 263 261 245 237 227 234 235 233 220 205 196 185 165 164 178 179 168 167 167 173 163 169 140
325 315 314 314 306 291 296 306 296 308 301 294 288 278 270 265 275 286 283 265 251 255 248 242 235 246 245 240 225 199 202 164 171 162 159 155 156 163 163 154 164 164 145
314 305 307 305 304 302 296 303 295 298 304 308 311 311 278 269 279 288 287 277 271 256 244 226 229 247 254 245 239 199 197 168 159 147 145 149 148 143 130 115 102 86 66
320 318 292 291 291 282 285 294 304 304 299 303 308 307 309 281 278 285 290 285 280 278 218 215 227 248 260 242 212 199 190 165 157 148 145 135 125 115 108 87 78 90 78
306 310 312 315 316 315 296 273 280 298 296 294 299 300 304 307 286 293 289 288 279 278 211 221 236 246 252 230 188 193 169 155 153 146 133 110 115 122 119 114 117 122 91
295 289 291 297 309 309 302 287 278 274 253 276 275 274 296 300 285 305 306 292 282 220 162 109 275 272 249 180 165 140 135 139 139 111 129 133 131 131 123 131 113 118 116
314 308 305 302 297 292 286 290 275 286 295 293 296 293 277 273 294 307 302 299 290 201 97 174 225 208 218 166 139 132 137 137 132 133 141 142 145 153 137 131 107 144 140
305 304 300 297 291 292 287 283 303 305 311 300 306 328 318 298 310 308 309 303 269 147 70 275 281 184 143 98 121 133 130 139 135 138 147 154 148 153 153 168 160 152 167
284 283 282 284 283 284 283 275 263 269 291 300 313 329 348 343 339 325 313 301 126 124 163 189 242 51 136 122 138 126 131 131 137 136 140 148 156 157 162 176 183 181 168
297 288 281 281 275 273 278 271 249 242 243 261 332 347 342 337 350 10 10 311 182 127 182 178 166 144 137 105 111 107 123 140 137 143 150 155 161 158 175 176 176 173 153
285 278 281 284 284 279 274 260 246 231 205 121 37 335 332 349 15 15 19 8 17 20 5 4 16 43 84 103 108 110 106 114 125 133 129 133 138 167 168 159 166 160 187
289 289 286 287 288 293 284 264 241 185 128 86 31 345 32 55 46 36 32 28 26 18 5 18 24 29 32 45 69 91 103 105 113 123 133 139 150 159 147 168 161 173 159
291 293 295 299 307 320 338 350 13 86 86 80 47 13 50 38 48 51 46 37 26 17 9 30 45 37 25 31 26 55 83 111 114 122 128 129 143 139 137 148 151 150 157
305 309 317 325 329 343 10 14 25 50 65 59 46 41 44 35 42 48 47 33 29 23 13 30 36 42 32 30 30 28 57 52 55 108 119 135 145 150 147 151 158 147 162
324 332 337 338 3 22 25 26 28 43 56 58 55 47 43 45 31 47 41 36 32 28 26 33 37 41 35 38 31 32 40 40 46 86 134 133 140 144 128 135 167 176 163
344 350 354 354 3 15 30 34 34 34 38 41 38 46 35 43 48 38 32 28 29 29 28 27 29 26 34 26 27 19 7 38 61 65 70 105 147 157 141 141 140 130 135
353 353 352 352 6 18 13 25 32 23 18 20 16 21 15 27 15 16 12 15 14 6 354 10 7 8 358 342 330 316 321 335 135 126 115 119 136 149 136 155 162 149 158